Location: Asheville, NC
(35.6000°N, 82.5500°W)
Time: 17:33:25
(UTC-04:00)

CUBEBUG 2 - Pass Details

Date: 06 January 2018
Orbit: 585 x 700 km, 97.6° (Epoch: 21 July)

Event Time Altitude Azimuth Distance (km) Brightness Sun altitude
Rises 07:10:32 0° 22° (NNE) 3,023 ? -6.3°
Reaches altitude 10° 07:12:55 10° 31° (NNE) 2,121 ? -5.9°
Maximum altitude 07:17:11 35° 97° (E) 1,108 ? -5.1°
Drops below altitude 10° 07:21:29 10° 163° (SSE) 2,147 ? -4.3°
Sets 07:23:55 0° 172° (S) 3,065 ? -3.8°
